Overview Statistics Trail Chart Weather Telemetry Raw packets
 

This is the latest recevied weather packets stored in our database for station/object DB0KE-10. If no packets are shown the sender has not sent any weather packets the latest 10 day(s).

<< 1 2 3 4 5 6 7 >>
Time Temp. Humidity Pressure Rain* Wind** Luminosity Snow
1788033442 27.78° C 36% 1023.8 hPa - - - -
1788032542 27.78° C 35% 1023.7 hPa - - - -
1788031642 27.78° C 35% 1023.7 hPa - - - -
1788030742 27.22° C 35% 1023.5 hPa - - - -
1788029842 27.22° C 35% 1023.3 hPa - - - -
1788028941 26.11° C 37% 1023.2 hPa - - - -
1788028042 27.22° C 35% 1023.2 hPa - - - -
1788027141 27.22° C 35% 1023.1 hPa - - - -
1788026241 27.22° C 34% 1023 hPa - - - -
1788025341 27.22° C 34% 1022.9 hPa - - - -
1788024441 27.22° C 33% 1022.8 hPa - - - -
1788023541 27.78° C 33% 1022.9 hPa - - - -
1788022640 27.78° C 33% 1022.9 hPa - - - -
1788021748 27.78° C 33% 1023 hPa - - - -
1788020848 27.78° C 33% 1023 hPa - - - -
1788019948 28.33° C 32% 1023.1 hPa - - - -
1788019048 27.78° C 32% 1023 hPa - - - -
1788018148 27.78° C 31% 1022.9 hPa - - - -
1788017248 27.78° C 30% 1023.1 hPa - - - -
1788016348 27.22° C 30% 1022.8 hPa - - - -
1788015448 27.22° C 30% 1022.8 hPa - - - -
1788014548 27.78° C 30% 1022.7 hPa - - - -
1788013648 27.22° C 30% 1022.9 hPa - - - -
1788012748 27.78° C 33% 1023 hPa - - - -
1788011848 27.22° C 32% 1023 hPa - - - -

* Rain since midnight (hover to see other rain measurements)
** Current wind speed in m/s (hover to see current wind gust speed)